{"data":{"norad_id":49755,"intl_designator":"2021-115AH","name":"STARLINK-3210","alt_names":[],"object_type":"PAYLOAD","status":"ACTIVE","operator":null,"country":"US","launch_date":"2021-12-02","launch_site_code":"AFETR","launch_vehicle":null,"mission":null,"orbit_class":"UNKNOWN","rcs_meters":null,"size_class":null,"mass_kg":null,"dimensions":null,"purposes":["comms"],"wikipedia_slug":null,"has_3d_model":false,"image_url":null,"decayed_at":null,"tle_current":{"epoch":"2026-05-25T01:02:41.341056Z","epoch_age_seconds":68344,"freshness":"FRESH","line1":"1 49755U 21115AH  26145.04353404  .00000143  00000+0  27095-4 0  9995","line2":"2 49755  53.2131 166.4042 0001191  75.2923 284.8201 15.08834945247061","mean_motion":15.08834945,"eccentricity":0.0001191,"inclination_deg":53.2131,"raan_deg":166.4042,"arg_perigee_deg":75.2923,"mean_anomaly_deg":284.8201,"bstar":2.7095e-5,"rev_number":24706,"period_min":95.43787441906,"perigee_km":538.9349187254,"apogee_km":540.58276151452,"semimajor_km":6917.89584012,"source":"CELESTRAK","updated_at":"2026-05-25T13:38:16.837998Z"}}}